• In Lithuania
  • List of Countries
  • For 7 days
  • Water Temperature
  • Satellite Maps
  • Weather Map
  • Weather Widgets
  • user-avatar
    Login

    Hourly Weather Barinas

    Today, 21 February, Wednesday

    Time Temperature Precipitation Wind Pressure Humidity
    00:00 +26°C° 0 mm 2 mps 745 mmHg 50%
    01:00 +26°C° 0 mm 2 mps 745 mmHg 53%
    02:00 +25°C° 0 mm 2 mps 745 mmHg 55%
    03:00 +25°C° 0 mm 2 mps 745 mmHg 58%
    04:00 +24°C° 0 mm 2 mps 745 mmHg 60%
    05:00 +25°C° 0 mm 2 mps 745 mmHg 59%
    06:00 +25°C° 0 mm 2 mps 746 mmHg 59%
    07:00 +26°C° 0 mm 2 mps 746 mmHg 58%
    08:00 +28°C° 0 mm 2 mps 746 mmHg 52%
    09:00 +30°C° 0 mm 3 mps 747 mmHg 45%
    10:00 +33°C° 0 mm 4 mps 747 mmHg 39%
    11:00 +34°C° 0 mm 4 mps 746 mmHg 36%
    12:00 +36°C° 0 mm 4 mps 745 mmHg 33%
    13:00 +37°C° 0 mm 4 mps 744 mmHg 30%
    14:00 +36°C° 0 mm 4 mps 744 mmHg 30%
    15:00 +36°C° 0 mm 3 mps 743 mmHg 30%
    16:00 +36°C° 0 mm 3 mps 742 mmHg 30%
    17:00 +34°C° 0 mm 3 mps 743 mmHg 35%
    18:00 +32°C° 0 mm 2 mps 743 mmHg 39%
    19:00 +30°C° 0 mm 2 mps 743 mmHg 43%
    20:00 +29°C° 0 mm 2 mps 744 mmHg 46%
    21:00 +28°C° 0 mm 2 mps 744 mmHg 48%
    22:00 +28°C° 0 mm 2 mps 745 mmHg 50%
    23:00 +27°C° 0 mm 2 mps 745 mmHg 52%

    Tomorrow, 22 February, Thursday

    Time Temperature Precipitation Wind Pressure Humidity
    00:00 +27°C° 0 mm 2 mps 745 mmHg 54%
    01:00 +26°C° 0 mm 2 mps 745 mmHg 57%
    02:00 +26°C° 0.1 mm 2 mps 745 mmHg 59%
    03:00 +26°C° 0.1 mm 2 mps 745 mmHg 62%
    04:00 +25°C° 0.1 mm 1 mps 745 mmHg 64%
    05:00 +25°C° 0.1 mm 1 mps 745 mmHg 63%
    06:00 +26°C° 0.1 mm 1 mps 746 mmHg 63%
    07:00 +26°C° 0.1 mm 2 mps 746 mmHg 62%
    08:00 +28°C° 0 mm 2 mps 747 mmHg 57%
    09:00 +30°C° 0 mm 3 mps 747 mmHg 51%
    10:00 +33°C° 0 mm 4 mps 747 mmHg 45%
    11:00 +34°C° 0.1 mm 3 mps 746 mmHg 42%
    12:00 +35°C° 0.1 mm 3 mps 745 mmHg 40%
    13:00 +36°C° 0.1 mm 3 mps 744 mmHg 37%
    14:00 +36°C° 0.1 mm 3 mps 743 mmHg 37%
    15:00 +36°C° 0.1 mm 3 mps 742 mmHg 37%
    16:00 +36°C° 0.1 mm 3 mps 742 mmHg 36%
    17:00 +35°C° 0.1 mm 3 mps 742 mmHg 39%
    18:00 +34°C° 0.1 mm 3 mps 743 mmHg 41%
    19:00 +31°C° 0.1 mm 2 mps 743 mmHg 43%
    20:00 +30°C° 0 mm 2 mps 744 mmHg 45%
    21:00 +30°C° 0 mm 2 mps 744 mmHg 46%
    22:00 +29°C° 0 mm 2 mps 745 mmHg 47%
    23:00 +28°C° 0 mm 2 mps 744 mmHg 50%

    Day after tomorrow, 23 February, Friday

    Time Temperature Precipitation Wind Pressure Humidity
    00:00 +27°C° 0 mm 2 mps 744 mmHg 52%
    01:00 +27°C° 0 mm 2 mps 744 mmHg 54%
    02:00 +26°C° 0 mm 2 mps 744 mmHg 56%
    03:00 +26°C° 0 mm 2 mps 744 mmHg 58%
    04:00 +25°C° 0 mm 2 mps 744 mmHg 60%
    05:00 +25°C° 0 mm 2 mps 744 mmHg 59%
    06:00 +26°C° 0 mm 2 mps 745 mmHg 58%
    07:00 +26°C° 0 mm 2 mps 745 mmHg 57%
    08:00 +28°C° 0 mm 2 mps 746 mmHg 51%
    09:00 +31°C° 0 mm 3 mps 746 mmHg 44%
    10:00 +34°C° 0 mm 4 mps 746 mmHg 38%
    11:00 +35°C° 0 mm 4 mps 745 mmHg 36%
    12:00 +36°C° 0 mm 4 mps 744 mmHg 34%
    13:00 +37°C° 0 mm 3 mps 743 mmHg 32%
    14:00 +37°C° 0 mm 3 mps 742 mmHg 32%
    15:00 +37°C° 0 mm 3 mps 741 mmHg 32%
    16:00 +36°C° 0 mm 3 mps 741 mmHg 32%
    17:00 +35°C° 0 mm 3 mps 741 mmHg 34%
    18:00 +33°C° 0 mm 3 mps 741 mmHg 37%
    19:00 +31°C° 0 mm 2 mps 742 mmHg 40%
    20:00 +30°C° 0 mm 2 mps 742 mmHg 42%
    21:00 +29°C° 0 mm 2 mps 743 mmHg 44%
    22:00 +29°C° 0 mm 2 mps 743 mmHg 46%
    23:00 +28°C° 0 mm 2 mps 743 mmHg 48%

    24 February, Saturday

    Time Temperature Precipitation Wind Pressure Humidity
    00:00 +27°C° 0 mm 2 mps 743 mmHg 49%
    01:00 +27°C° 0 mm 2 mps 743 mmHg 51%
    02:00 +26°C° 0 mm 2 mps 743 mmHg 53%
    03:00 +26°C° 0 mm 2 mps 743 mmHg 55%
    04:00 +25°C° 0 mm 1 mps 743 mmHg 57%
    05:00 +25°C° 0 mm 1 mps 743 mmHg 56%
    06:00 +26°C° 0 mm 1 mps 744 mmHg 55%
    07:00 +26°C° 0 mm 1 mps 744 mmHg 54%
    08:00 +28°C° 0 mm 2 mps 744 mmHg 48%
    09:00 +31°C° 0 mm 2 mps 744 mmHg 41%
    10:00 +34°C° 0 mm 3 mps 744 mmHg 35%
    11:00 +35°C° 0 mm 3 mps 743 mmHg 33%
    12:00 +36°C° 0 mm 3 mps 742 mmHg 32%
    13:00 +37°C° 0 mm 3 mps 741 mmHg 30%
    14:00 +37°C° 0 mm 3 mps 741 mmHg 30%
    15:00 +37°C° 0 mm 3 mps 740 mmHg 31%
    16:00 +37°C° 0 mm 3 mps 740 mmHg 31%
    17:00 +35°C° 0 mm 3 mps 740 mmHg 34%
    18:00 +32°C° 0 mm 2 mps 741 mmHg 38%
    19:00 +31°C° 0 mm 2 mps 742 mmHg 41%
    20:00 +30°C° 0 mm 2 mps 742 mmHg 43%
    21:00 +30°C° 0 mm 2 mps 743 mmHg 44%
    22:00 +29°C° 0 mm 2 mps 743 mmHg 46%
    23:00 +28°C° 0 mm 2 mps 743 mmHg 48%

    25 February, Sunday

    Time Temperature Precipitation Wind Pressure Humidity
    00:00 +28°C° 0 mm 2 mps 743 mmHg 50%
    01:00 +27°C° 0 mm 2 mps 743 mmHg 53%
    02:00 +27°C° 0 mm 2 mps 743 mmHg 54%
    03:00 +27°C° 0 mm 2 mps 743 mmHg 56%
    04:00 +26°C° 0 mm 1 mps 743 mmHg 57%
    05:00 +26°C° 0 mm 2 mps 743 mmHg 57%
    06:00 +27°C° 0 mm 2 mps 744 mmHg 56%
    07:00 +27°C° 0 mm 2 mps 745 mmHg 55%
    08:00 +29°C° 0 mm 2 mps 745 mmHg 49%
    09:00 +33°C° 0 mm 3 mps 745 mmHg 44%
    10:00 +35°C° 0 mm 3 mps 745 mmHg 38%
    11:00 +36°C° 0 mm 3 mps 744 mmHg 36%
    12:00 +37°C° 0 mm 3 mps 743 mmHg 34%
    13:00 +38°C° 0 mm 3 mps 742 mmHg 32%
    14:00 +37°C° 0.1 mm 3 mps 741 mmHg 33%
    15:00 +37°C° 0.1 mm 3 mps 741 mmHg 34%
    16:00 +37°C° 0.1 mm 3 mps 740 mmHg 35%
    17:00 +35°C° 0.1 mm 2 mps 741 mmHg 37%
    18:00 +34°C° 0.1 mm 2 mps 741 mmHg 39%
    19:00 +32°C° 0.1 mm 2 mps 742 mmHg 41%
    20:00 +31°C° 0 mm 2 mps 742 mmHg 43%
    21:00 +30°C° 0 mm 2 mps 743 mmHg 45%
    22:00 +30°C° 0 mm 2 mps 743 mmHg 47%
    23:00 +29°C° 0 mm 2 mps 743 mmHg 50%

    26 February, Monday

    Time Temperature Precipitation Wind Pressure Humidity
    00:00 +28°C° 0 mm 2 mps 743 mmHg 52%
    01:00 +28°C° 0 mm 2 mps 743 mmHg 54%
    02:00 +27°C° 0 mm 2 mps 743 mmHg 56%
    03:00 +27°C° 0 mm 2 mps 743 mmHg 58%
    04:00 +26°C° 0 mm 2 mps 743 mmHg 60%
    05:00 +27°C° 0 mm 2 mps 744 mmHg 59%
    06:00 +27°C° 0 mm 2 mps 744 mmHg 58%
    07:00 +27°C° 0 mm 2 mps 745 mmHg 57%
    08:00 +30°C° 0 mm 2 mps 745 mmHg 51%
    09:00 +33°C° 0 mm 3 mps 745 mmHg 45%
    10:00 +35°C° 0 mm 3 mps 745 mmHg 38%
    11:00 +36°C° 0 mm 3 mps 744 mmHg 37%
    12:00 +37°C° 0 mm 3 mps 743 mmHg 36%
    13:00 +38°C° 0 mm 3 mps 742 mmHg 34%
    14:00 +37°C° 0 mm 3 mps 742 mmHg 35%
    15:00 +37°C° 0 mm 3 mps 741 mmHg 35%
    16:00 +37°C° 0 mm 3 mps 740 mmHg 35%
    17:00 +36°C° 0 mm 2 mps 741 mmHg 38%
    18:00 +34°C° 0 mm 2 mps 741 mmHg 41%
    19:00 +32°C° 0 mm 2 mps 741 mmHg 43%
    20:00 +32°C° 0 mm 2 mps 742 mmHg 45%
    21:00 +31°C° 0 mm 2 mps 742 mmHg 46%
    22:00 +30°C° 0 mm 2 mps 743 mmHg 48%
    23:00 +30°C° 0 mm 2 mps 743 mmHg 49%
    Show more